Owatonna Degner Regional Airport

Airport
ICAO code: 
KOWA
IATA Code: 
OWA
Summary
ICAO Region: 
NAM
Territory: 
Location: 
Owatonna, Minnesota,
Serving: 
Owatonna
Elevation: 
1145 ft
Coordinates: 
Aerial View: 
44° 7' 22.627" N, 93° 15' 31.774" W
Metar
Observation
KOWA 191713Z AUTO 13012G17KT 10SM VCTS SCT070 SCT110 21/11 A2948 RMK AO2 LTG DSNT ALQDS
Station
Owatonna, Owatonna Degner Regional Airport
Date/Time
2022-05-19 17:13:00
Wind direction
130°
Wind speed
12 kts
Lowest cloud amount
scattered clouds
Temperature
21°C
Dew point
11°C
Humidity
52%
Weather condition
in vicinity: thunderstorm

Description

Regional airport serving Owatonna, Minnesota.

Climatology

Humid Continental climate (Köppen climate classification Dfb) - Variable weather patterns and a large seasonal temperature variance. Summers are often warm and humid with frequent thunderstorms and winters can be very cold with frequent snowfall and persistent snow cover.

Runways

Designator Length Width Surface Rops
12/30 1676 30 CON No/No
Airport map: 
Aerial View: 

Accidents and Serious Incidents at or in the vicinity of KOWA

SKYbrary Partners:

Safety knowledge contributed by: